Home   Weather   Taunusstein   Past weeks

Flag for Germany Past Weather in Taunusstein, Hesse, Germany — Yesterday and Last 2 Weeks

Now
21 °F

Sunny.


Feels Like: 21 °F
Forecast: 13 / 29 °F
Wind: No wind

Location: Wiesbaden Airport

Current Time: Jan 19, 2017 at 10:11:41 am

Latest Report: Jan 19, 2017 at 8:58 am


Visibility: N/A

Pressure: 30.66 "Hg

Humidity: 74%

Dew Point: 14 °F

Location of TaunussteinLocation

Past Weather in Taunusstein — Graph

°F

Taunusstein Temperature Yesterday

Maximum temperature yesterday: 31 °F (at 3:58 pm)
Minimum temperature yesterday: 25 °F (at 7:58 am)
Average temperature yesterday: 28 °F

High & Low Weather Summary for the Past Weeks

 TemperatureHumidityPressure
High43 °F (Jan 13, 2:06 am)100% (Jan 4, 10:58 pm)30.80 "Hg (Jan 4, 10:58 pm)
Low14 °F (Jan 7, 3:58 am)50% (Jan 17, 1:58 pm)29.13 "Hg (Jan 13, 2:06 am)
Average32 °F85%30.11 "Hg
* Reported Jan 4 8:58 am — Jan 19 8:58 am, Taunusstein, Weather by CustomWeather, © 2017

Note: Actual official high and low records may vary slightly from our data, if they occured in-between our weather recording intervals... More about our weather records

Advertising

Taunusstein Weather History for the Previous 24 Hours

Scroll right to see more
 ConditionsComfort  
Time TempWeatherWind HumidityBarometerVisibility
8:58 am
Thu, Jan 19
21 °FSunny.No wind74%30.66 "HgN/A
7:58 am19 °FClear.No wind76%30.65 "HgN/A
6:58 am24 °FClear.No wind62%30.64 "HgN/A
5:58 am24 °FClear.3 mph62%30.64 "HgN/A
4:58 am24 °FClear.6 mph64%30.65 "HgN/A
3:58 am25 °FClear.No wind63%30.65 "HgN/A
2:58 am25 °FClear.6 mph63%30.64 "HgN/A
1:58 am27 °FClear.9 mph64%30.65 "HgN/A
12:58 am26 °FClear.13 mph63%30.65 "HgN/A
11:58 pm
Wed, Jan 18
27 °FClear.12 mph64%30.65 "HgN/A
10:58 pm27 °FClear.10 mph69%30.65 "HgN/A
9:58 pm27 °FClear.13 mph69%30.65 "HgN/A
8:58 pm27 °FClear.9 mph74%30.66 "HgN/A
7:58 pm28 °FClear.10 mph69%30.66 "HgN/A
6:58 pm28 °FClear.8 mph69%30.66 "HgN/A
5:58 pm30 °FOvercast.9 mph59%30.66 "HgN/A
4:58 pm30 °FClear.9 mph59%30.66 "HgN/A
3:58 pm31 °FSunny.14 mph56%30.66 "HgN/A
2:58 pm30 °FSunny.12 mph59%30.65 "HgN/A
1:58 pm30 °FSunny.10 mph59%30.66 "HgN/A
12:58 pm30 °FSunny.15 mph58%30.67 "HgN/A
11:58 am30 °FSunny.14 mph59%30.68 "HgN/A
10:58 am28 °FSunny.15 mph63%30.69 "HgN/A
Weather by CustomWeather, © 2017

See weather overviewHow to use our weather pages